Weather History for Fort Bragg, NC

Change the Weather History Date:

Thursday, February 2, 2012

  Actual Average Record
Temperature  
Mean Temperature 62 °F -  
Max Temperature 71 °F 52 °F 71 °F (2011)
Min Temperature 52 °F 33 °F 20 °F (2013)
Degree Days  
Heating Degree Days 3    
Growing Degree Days 12 (Base 50)    
Moisture  
Dew Point 49 °F    
Average Humidity 69    
Maximum Humidity 100    
Minimum Humidity 37    
Precipitation  
Precipitation 0.10 in - - ()
Sea Level Pressure  
Sea Level Pressure 30.09 in    
Wind  
Wind Speed 8 mph (West)    
Max Wind Speed 20 mph    
Max Gust Speed 25 mph    
Visibility 10 miles    
Events Rain    
Averages and records for this station are not official NWS values.
T = Trace of Precipitation, MM = Missing Value Source: NWS Daily Summary

Daily Weather History Graph

Daily Weather History Graph

Search for Another Location

Airport:

Trip Planner

Search our weather history database for the weather conditions in past years. The results will help you decide how hot, cold, wet, or windy it might be!

Date:

Astronomy

Feb. 02, 2012 Rise Set
Actual Time 7:14 AM EST 5:44 PM EST
Civil Twilight 6:47 AM EST 6:11 PM EST
Nautical Twilight 6:17 AM EST 6:41 PM EST
Astronomical Twilight 5:47 AM EST 7:11 PM EST
Moon 12:59 PM EST (2/2) 2:50 AM EST (2/2)
Length of Visible Light 11h 23m
Length of Day
10h 30m
Waxing Gibbous, 73% of the Moon is Illuminated
Feb 2
Waxing Gibbous
Feb 7
Full
Feb 14
Last Quarter
Feb 21
New
Feb 29
First Quarter

Hourly Weather History & Observations

Time (EST) Temp. Dew Point Humidity Pressure Visibility Wind Dir Wind Speed Gust Speed Precip Events Conditions
12:55 AM 61.2 °F 49.8 °F 66% 30.06 in 10.0 mi SSW 6.9 mph - N/A   Overcast
1:55 AM 61.5 °F 51.4 °F 69% 30.04 in 10.0 mi SW 8.1 mph - N/A   Mostly Cloudy
2:10 AM 60.8 °F 51.8 °F 72% 30.05 in 10.0 mi WSW 10.4 mph - N/A Rain Light Rain
2:55 AM 58.3 °F 54.3 °F 87% 30.06 in 9.0 mi WSW 10.4 mph - 0.01 in Rain Light Rain
3:13 AM 57.2 °F 55.4 °F 94% 30.06 in 10.0 mi West 8.1 mph - N/A Rain Light Rain
3:46 AM 57.2 °F 55.4 °F 94% 30.04 in 10.0 mi WSW 5.8 mph - N/A Rain Light Rain
3:55 AM 56.7 °F 55.6 °F 96% 30.04 in 10.0 mi West 5.8 mph - 0.06 in Rain Light Rain
3:57 AM 57.2 °F 55.4 °F 94% 30.04 in 10.0 mi SW 5.8 mph - N/A Rain Light Rain
4:55 AM 56.7 °F 56.3 °F 99% 30.02 in 10.0 mi SSW 5.8 mph - 0.02 in Rain Light Rain
4:58 AM 57.2 °F 57.2 °F 100% 30.02 in 10.0 mi SSW 4.6 mph - N/A   Mostly Cloudy
5:55 AM 56.7 °F 56.3 °F 99% 30.03 in 10.0 mi SW 4.6 mph - 0.00 in   Overcast
6:55 AM 57.2 °F 56.8 °F 99% 30.03 in 10.0 mi WSW 5.8 mph - N/A   Overcast
7:55 AM 57.7 °F 56.8 °F 97% 30.06 in 10.0 mi WSW 10.4 mph - N/A   Overcast
8:16 AM 57.2 °F 57.2 °F 100% 30.06 in 10.0 mi West 9.2 mph - N/A   Overcast
8:55 AM 58.5 °F 56.8 °F 94% 30.06 in 10.0 mi West 11.5 mph - N/A   Overcast
9:30 AM 60.8 °F 55.4 °F 82% 30.07 in 10.0 mi West 12.7 mph - N/A   Scattered Clouds
9:55 AM 61.5 °F 55.8 °F 81% 30.08 in 10.0 mi West 12.7 mph - N/A   Partly Cloudy
10:55 AM 65.8 °F 53.2 °F 64% 30.08 in 10.0 mi WNW 11.5 mph - N/A   Clear
11:55 AM 68.9 °F 48.9 °F 49% 30.07 in 10.0 mi WNW 13.8 mph 19.6 mph 0.01 in   Clear
12:55 PM 70.2 °F 46.2 °F 42% 30.06 in 10.0 mi NNW 19.6 mph 25.3 mph N/A   Partly Cloudy
1:55 PM 71.1 °F 44.8 °F 39% 30.06 in 10.0 mi NW 15.0 mph - N/A   Clear
2:55 PM 70.2 °F 43.9 °F 39% 30.06 in 10.0 mi NW 10.4 mph - N/A   Clear
3:55 PM 70.2 °F 46.0 °F 42% 30.07 in 10.0 mi North 8.1 mph - N/A   Clear
4:55 PM 69.3 °F 42.1 °F 37% 30.09 in 10.0 mi WNW 13.8 mph - N/A   Clear
5:55 PM 65.3 °F 39.0 °F 38% 30.12 in 10.0 mi NW 8.1 mph - N/A   Clear
6:55 PM 61.5 °F 38.8 °F 43% 30.17 in 10.0 mi NW 8.1 mph - N/A   Clear
7:55 PM 59.2 °F 37.4 °F 44% 30.19 in 10.0 mi NW 5.8 mph - N/A   Clear
8:55 PM 57.7 °F 34.5 °F 42% 30.23 in 10.0 mi North 6.9 mph - N/A   Clear
9:55 PM 55.6 °F 32.2 °F 41% 30.25 in 10.0 mi North 5.8 mph - N/A   Clear
10:55 PM 53.4 °F 30.7 °F 42% 30.28 in 10.0 mi North 5.8 mph - N/A   Clear
11:55 PM 52.0 °F 29.7 °F 42% 30.30 in 10.0 mi North 4.6 mph - N/A   Clear